This demonstration page uses our WeatherBlox Daily Observations layout. Learn more.

Left ArrowRight Arrow

41.86663, -103.66717

Hourly Observations for June 18, 2022

Temp ( °F °C ) Dew Point ( °F °C ) Humidity (%) Winds ( mph kmh ) Pressure ( in mb ) Visibility ( mi km ) Precip ( " mm )
12:53 am 00:53 Clear 76 24.4 40 4.4 27 27 ESE 10 17 29.71 1006 10 16 0.00 0.00
1:53 am 01:53 Clear 77 25 40 4.4 26 26 ESE 16 26 29.69 1006 10 16 0.00 0.00
2:53 am 02:53 Clear 77 25 40 4.4 26 26 SE 12 19 29.70 1006 10 16 0.00 0.00
3:53 am 03:53 Clear 75 23.9 40 4.4 28 28 SE 14 22 29.70 1006 10 16 0.00 0.00
4:53 am 04:53 Clear 75 23.9 40 4.4 28 28 SE 14 22 29.70 1006 10 16 0.00 0.00
5:53 am 05:53 Sunny 74 23.3 41 5 31 31 SE 9 15 29.73 1007 10 16 0.00 0.00
6:53 am 06:53 Sunny 76 24.4 43 6.1 31 31 SE 13 20 29.73 1007 10 16 0.00 0.00
7:53 am 07:53 Sunny 80 26.7 44 6.7 28 28 SSE 13 20 29.73 1007 10 16 0.00 0.00
8:53 am 08:53 Sunny 84 28.9 46 7.8 27 27 S 17 28 29.72 1007 10 16 0.00 0.00
9:53 am 09:53 Sunny 90 32.2 49 9.4 24 24 SE 16 26 29.71 1006 10 16 0.00 0.00
10:53 am 10:53 Sunny 93 33.9 50 10 23 23 SE 18 30 29.70 1006 10 16 0.00 0.00
11:53 am 11:53 Sunny 98 36.7 49 9.4 19 19 SSE 16 26 29.68 1005 10 16 0.00 0.00
12:53 pm 12:53 Sunny 94 34.4 48 8.9 21 21 S 16 26 29.69 1005 10 16 0.00 0.00
1:31 pm 13:31 Mostly Cloudy 92 33.3 49 9.4 23 23 WNW 15 24 29.52 1000 10 16 0.00 0.00
1:40 pm 13:40 Mostly Cloudy 93 33.9 49 9.4 22 22 WNW 15 24 29.50 999 10 16 0.00 0.00
1:53 pm 13:53 Partly Cloudy 92 33.3 48 8.9 22 22 W 15 24 29.69 1005 10 16 0.00 0.00
2:40 pm 14:40 Partly Cloudy with Nearby Thunderstorms 87 30.6 55 12.8 34 34 ESE 10 17 29.55 1001 10 16 0.01 0.25
2:53 pm 14:53 Partly Cloudy 90 32.2 52 11.1 27 27 ESE 10 17 29.70 1006 10 16 0.01 0.25
3:53 pm 15:53 Cloudy 89 31.7 54 12.2 30 30 SSE 8 13 29.70 1006 10 16 0.00 0.00
4:53 pm 16:53 Partly Cloudy 96 35.6 50 10 21 21 SSW 13 20 29.66 1004 10 16 0.00 0.00
5:53 pm 17:53 Mostly Sunny 95 35 50 10 22 22 SSE 3 6 29.65 1004 10 16 0.00 0.00
6:53 pm 18:53 Mostly Sunny 95 35 49 9.4 21 21 NNW 5 7 29.63 1003 10 16 0.00 0.00
7:53 pm 19:53 Sunny 90 32.2 53 11.7 28 28 ENE 7 11 29.62 1003 10 16 0.00 0.00
8:37 pm 20:37 Mostly Clear 86 30 51 10.6 30 30 S 20 31 29.49 999 10 16 0.00 0.00
8:53 pm 20:53 Clear 85 29.4 51 10.6 31 31 S 14 22 29.63 1003 10 16 0.00 0.00
9:53 pm 21:53 Clear 84 28.9 49 9.4 30 30 SSW 7 11 29.65 1004 10 16 0.00 0.00
10:53 pm 22:53 Clear 79 26.1 51 10.6 38 38 E 12 19 29.67 1005 10 16 0.00 0.00
11:53 pm 23:53 Clear 77 25 51 10.6 40 40 ESE 3 6 29.67 1005 10 16 0.00 0.00

Powered by AerisWeather